Location: Newark
(48.9320°N, 2.2664°E)
Time: 19:17:35
(UTC+00:00)

Vanguard 1 - Visible Passes

Search period start: 28 February 2020 00:00
Search period end: 09 March 2020 00:00
Orbit: 649 x 3834 km, 34.3° (Epoch: 27 February)

Date Brightness Start Highest point End Pass type
(mag) Time Alt. Az. Time Alt. Az. Time Alt. Az.
28 Feb 14.2 03:21:04 10° SSE 03:33:02 17° SE 03:44:44 10° E visible
28 Feb 13.9 05:35:40 10° SSW 05:55:31 38° SSE 06:12:02 10° E visible
29 Feb 14.1 03:38:22 10° S 03:53:21 23° SE 04:07:57 10° E visible
29 Feb 13.8 05:55:37 10° SW 06:16:20 42° SSE 06:33:14 10° E visible
01 Mar 14.0 03:56:49 10° S 04:13:46 28° SE 04:30:12 10° E visible
02 Mar 14.1 02:06:40 10° SE 02:12:50 12° SE 02:19:10 10° ESE visible
02 Mar 13.8 04:15:56 10° SSW 04:34:17 34° SE 04:51:58 10° E visible
03 Mar 14.0 02:21:27 10° SSE 02:32:52 17° SE 02:44:58 10° E visible
03 Mar 13.7 04:35:33 10° SSW 04:54:55 39° SSE 05:13:25 10° E visible
04 Mar 13.8 02:38:55 10° S 02:53:01 23° SE 03:08:13 10° E visible
04 Mar 13.6 04:55:31 10° SW 05:15:40 44° SSE 05:34:42 10° E visible
05 Mar 13.7 02:59:02 13° S 03:13:16 28° SE 03:30:33 10° E visible
05 Mar 13.5 05:15:46 10° SW 05:36:30 48° SSE 05:55:49 10° E visible
06 Mar 13.9 01:08:39 10° SE 01:12:59 11° ESE 01:17:31 10° ESE visible
06 Mar 13.6 03:19:04 15° SSW 03:33:39 34° SE 03:52:24 10° E visible
06 Mar 13.5 05:36:16 10° SW 05:57:25 51° SSE 06:16:52 10° E visible
07 Mar 13.7 01:26:17 14° SSE 01:32:52 16° SE 01:44:06 10° E visible
07 Mar 13.5 03:39:00 16° SSW 03:54:11 39° SSE 04:13:56 10° E visible
08 Mar 13.6 01:46:09 18° SSE 01:52:51 22° SE 02:07:32 10° E visible
08 Mar 13.4 03:58:51 16° SSW 04:14:50 44° SSE 04:35:17 10° E visible
